287P/Christensen (2023)

Japanese version
Home page
Updated on September 11, 2022

---------------------------------------------------------------------

* Profile

* Orbital Elements

Epoch 2022 Aug. 9.0 TT = JDT 2459800.5
T 2023 July 5.03683 TT                                  Rudenko
q   3.0345263            (2000.0)            P               Q
n   0.11603704     Peri.  189.08890     +0.84507447     +0.50191401
a   4.1629860      Node   139.04096     -0.47117973     +0.86197551
e   0.2710698      Incl.   16.32026     -0.25266343     +0.07127792
P   8.49
From 229 observations 2006 Aug. 30-2022 May 29, mean residual 0".9.
     Nongravitational parameters A1 = -3.31, A2 = -0.5239.

* Finding Charts

* Magnitudes Graph

        m1 = 0.5 + 5 log d + 30.0 log r

---------------------------------------------------------------------

The orbital elements are published on M.P.E.C. 2022-L66.
The charts are made with StellaNavigator Ver.10 (AstroArts).
The magnitudes graphs are made with Comet for Windows.

---------------------------------------------------------------------

Copyright(C) Seiichi Yoshida (comet@aerith.net). All rights reserved.